This is the latest recevied weather packets stored in our database for station/object KD7CTY. If no packets are shown the sender has not sent any weather packets the latest 10 day(s).
| Time | Temp. | Humidity | Pressure | Rain* | Wind** | Luminosity | Snow |
|---|---|---|---|---|---|---|---|
| 1777755054 | 21.67° C | 56% | 1014.4 hPa | 0 mm | - | 724 W/m² | - |
| 1777754750 | 21.11° C | 59% | 1014.4 hPa | 0 mm | - | 712 W/m² | - |
| 1777754449 | 21.67° C | 58% | 1014.4 hPa | 0 mm | - | 708 W/m² | - |
| 1777754145 | 21.11° C | 60% | 1014.6 hPa | 0 mm | - | 684 W/m² | - |
| 1777753843 | 21.11° C | 59% | 1014.8 hPa | 0 mm | - | 617 W/m² | - |
| 1777753538 | 20.56° C | 62% | 1014.5 hPa | 0 mm | - | 581 W/m² | - |
| 1777753237 | 20.56° C | 61% | 1014.7 hPa | 0 mm | - | 665 W/m² | - |
| 1777752932 | 20.56° C | 61% | 1014.7 hPa | 0 mm | - | 727 W/m² | - |
| 1777752629 | 20.56° C | 61% | 1014.8 hPa | 0 mm | - | 760 W/m² | - |
| 1777752325 | 20.56° C | 60% | 1015 hPa | 0 mm | - | 796 W/m² | - |
| 1777752023 | 21.11° C | 59% | 1014.9 hPa | 0 mm | - | 785 W/m² | - |
| 1777751721 | 20.56° C | 61% | 1014.8 hPa | 0 mm | - | 767 W/m² | - |
| 1777751416 | 20.56° C | 61% | 1015 hPa | 0 mm | - | 729 W/m² | - |
| 1777751113 | 20.56° C | 61% | 1015.1 hPa | 0 mm | - | 730 W/m² | - |
| 1777750809 | 20.56° C | 61% | 1015.1 hPa | 0 mm | - | 756 W/m² | - |
| 1777750507 | 20.56° C | 62% | 1014.9 hPa | 0 mm | - | 781 W/m² | - |
| 1777750203 | 20.56° C | 61% | 1015.1 hPa | 0 mm | - | 737 W/m² | - |
| 1777749899 | 20.56° C | 62% | 1015.2 hPa | 0 mm | - | 771 W/m² | - |
| 1777749596 | 20° C | 62% | 1015.2 hPa | 0 mm | - | 719 W/m² | - |
| 1777749294 | 20° C | 62% | 1015.3 hPa | 0 mm | - | 872 W/m² | - |
| 1777748991 | 20.56° C | 62% | 1015.4 hPa | 0 mm | - | 882 W/m² | - |
| 1777748688 | 20.56° C | 64% | 1015.2 hPa | 0 mm | - | 889 W/m² | - |
| 1777748384 | 20° C | 64% | 1015.2 hPa | 0 mm | - | 830 W/m² | - |
| 1777748080 | 20° C | 64% | 1015.1 hPa | 0 mm | - | 830 W/m² | - |
| 1777747777 | 20° C | 63% | 1015.3 hPa | 0 mm | - | 828 W/m² | - |
* Rain latest hour (hover to see other rain measurements)
** Current wind speed in m/s (hover to see current wind gust speed)